TimeGMT,TemperatureF,Dew PointF,Humidity,Sea Level PressureIn,VisibilityMPH,Wind Direction,Wind SpeedMPH,Gust SpeedMPH,PrecipitationIn,Events,Conditions,WindDirDegrees,DateUTC
12:00 AM,33,31,88,29.39,12,WNW,4.5,,,,,290,2013-03-17 00:00:00
12:00 AM,32.0,30.2,93,29.39,-9999.0,WNW,3.5,-,N/A,,Clear,290,2013-03-17 00:00:00
12:30 AM,33.8,32.0,93,29.36,-9999.0,West,3.5,-,N/A,,Clear,270,2013-03-17 00:30:00
1:00 AM,35.6,33.8,93,29.36,-9999.0,WSW,5.8,-,N/A,,Clear,250,2013-03-17 01:00:00
1:30 AM,35.6,33.8,93,29.36,-9999.0,WSW,8.1,-,N/A,,Clear,240,2013-03-17 01:30:00
2:00 AM,35.6,33.8,93,29.33,-9999.0,WSW,2.3,-,N/A,,Clear,240,2013-03-17 02:00:00
2:30 AM,35.6,33.8,93,29.33,-9999.0,SW,3.5,-,N/A,,Clear,220,2013-03-17 02:30:00
3:00 AM,35.6,33.8,93,29.33,6.2,South,2.3,-,N/A,,Scattered Clouds,180,2013-03-17 03:00:00
3:30 AM,35.6,33.8,93,29.30,6.2,ESE,2.3,-,N/A,,Mostly Cloudy,120,2013-03-17 03:30:00
4:00 AM,35.6,33.8,93,29.30,6.2,West,5.8,-,N/A,Rain,Light Rain,280,2013-03-17 04:00:00
4:30 AM,35.6,35.6,100,29.30,6.2,SE,2.3,-,N/A,Rain,Light Rain,140,2013-03-17 04:30:00
5:00 AM,35.6,35.6,100,29.27,6.2,ESE,5.8,-,N/A,,Mostly Cloudy,110,2013-03-17 05:00:00
5:30 AM,35.6,35.6,100,29.27,6.2,SE,4.6,-,N/A,,Scattered Clouds,130,2013-03-17 05:30:00
6:00 AM,36,35,96,29.28,12,South,4.5,,,Rain,Light Rain,190,2013-03-17 06:00:00
6:00 AM,35.6,35.6,100,29.27,6.2,South,4.6,-,N/A,,Mostly Cloudy,190,2013-03-17 06:00:00
6:30 AM,35.6,33.8,93,29.27,6.2,South,2.3,-,N/A,,Mostly Cloudy,190,2013-03-17 06:30:00
7:00 AM,35.6,33.8,93,29.27,6.2,Calm,Calm,-,N/A,,Mostly Cloudy,0,2013-03-17 07:00:00
7:30 AM,35.6,33.8,93,29.27,6.2,NNE,5.8,-,N/A,,Mostly Cloudy,30,2013-03-17 07:30:00
8:00 AM,35.6,35.6,100,29.27,6.2,North,1.2,-,N/A,,Mostly Cloudy,350,2013-03-17 08:00:00
8:30 AM,37.4,35.6,93,29.27,6.2,Calm,Calm,-,N/A,,Mostly Cloudy,0,2013-03-17 08:30:00
9:00 AM,39.2,37.4,93,29.27,6.2,West,3.5,-,N/A,,Mostly Cloudy,280,2013-03-17 09:00:00
9:30 AM,41.0,39.2,93,29.27,6.2,West,6.9,-,N/A,,Mostly Cloudy,280,2013-03-17 09:30:00
10:00 AM,41.0,37.4,87,29.27,6.2,NW,9.2,-,N/A,Rain,Light Rain,310,2013-03-17 10:00:00
10:30 AM,41.0,37.4,87,29.27,6.2,NNW,8.1,-,N/A,,Mostly Cloudy,330,2013-03-17 10:30:00
11:00 AM,42.8,39.2,87,29.27,6.2,NW,10.4,-,N/A,,Mostly Cloudy,320,2013-03-17 11:00:00
11:30 AM,44.6,39.2,81,29.24,6.2,NNW,11.5,-,N/A,,Mostly Cloudy,340,2013-03-17 11:30:00
12:00 PM,46,38,67,29.25,19,NNW,17.9,,,Rain,Light Rain Showers,340,2013-03-17 12:00:00
12:00 PM,46.4,39.2,76,29.24,6.2,NNW,17.3,-,N/A,,Mostly Cloudy,340,2013-03-17 12:00:00
12:30 PM,46.4,37.4,71,29.24,6.2,NNW,17.3,-,N/A,,Mostly Cloudy,330,2013-03-17 12:30:00
1:00 PM,46.4,37.4,71,29.24,6.2,NNW,18.4,-,N/A,,Scattered Clouds,330,2013-03-17 13:00:00
1:30 PM,46.4,39.2,76,29.21,6.2,NW,17.3,-,N/A,,Scattered Clouds,320,2013-03-17 13:30:00
2:00 PM,46.4,37.4,71,29.21,6.2,NW,20.7,-,N/A,,Scattered Clouds,320,2013-03-17 14:00:00
2:30 PM,46.4,37.4,71,29.21,6.2,NW,23.0,-,N/A,,Scattered Clouds,320,2013-03-17 14:30:00
3:00 PM,46.4,37.4,71,29.21,6.2,NW,18.4,-,N/A,,Mostly Cloudy,310,2013-03-17 15:00:00
3:30 PM,46.4,37.4,71,29.21,6.2,WNW,19.6,-,N/A,,Scattered Clouds,300,2013-03-17 15:30:00
4:00 PM,46.4,37.4,71,29.21,6.2,NW,18.4,-,N/A,,Mostly Cloudy,310,2013-03-17 16:00:00
4:30 PM,44.6,37.4,76,29.21,6.2,WNW,17.3,-,N/A,Rain,Light Rain Showers,300,2013-03-17 16:30:00
5:00 PM,44.6,37.4,76,29.21,6.2,WNW,19.6,32.2,N/A,Rain,Light Rain Showers,300,2013-03-17 17:00:00
5:30 PM,44.6,35.6,71,29.21,6.2,NW,17.3,-,N/A,,Mostly Cloudy,310,2013-03-17 17:30:00
6:00 PM,43,36,67,29.22,19,WNW,15.7,,,Rain,Light Rain Showers,300,2013-03-17 18:00:00
6:00 PM,42.8,35.6,76,29.21,6.2,WNW,16.1,-,N/A,,Scattered Clouds,300,2013-03-17 18:00:00
6:30 PM,42.8,35.6,76,29.21,6.2,WNW,12.7,-,N/A,,Partly Cloudy,290,2013-03-17 18:30:00
7:00 PM,41.0,35.6,81,29.21,6.2,WNW,11.5,-,N/A,,Partly Cloudy,290,2013-03-17 19:00:00
7:30 PM,39.2,35.6,87,29.21,6.2,WNW,10.4,-,N/A,,Partly Cloudy,290,2013-03-17 19:30:00
8:00 PM,39.2,35.6,87,29.21,6.2,West,8.1,-,N/A,,Partly Cloudy,260,2013-03-17 20:00:00
8:30 PM,39.2,35.6,87,29.18,6.2,West,9.2,-,N/A,,Scattered Clouds,270,2013-03-17 20:30:00
9:00 PM,39.2,35.6,87,29.18,6.2,West,9.2,-,N/A,,Scattered Clouds,280,2013-03-17 21:00:00
9:30 PM,41.0,37.4,87,29.18,6.2,West,8.1,-,N/A,,Mostly Cloudy,260,2013-03-17 21:30:00
10:00 PM,41.0,37.4,87,29.18,6.2,West,11.5,-,N/A,Rain,Light Rain Showers,270,2013-03-17 22:00:00
10:30 PM,41.0,39.2,93,29.18,6.2,WSW,6.9,-,N/A,Rain,Light Rain Showers,240,2013-03-17 22:30:00
11:00 PM,39.2,37.4,93,29.18,6.2,West,5.8,-,N/A,,Mostly Cloudy,260,2013-03-17 23:00:00
11:30 PM,39.2,37.4,93,29.18,6.2,West,3.5,-,N/A,,Mostly Cloudy,280,2013-03-17 23:30:00